Current weather by "City, St" or "zip code"  
 
Advertise Here

Current Conditions: Indianapolis, Eagle Creek Airpark, IN

Fair


72.0 F

Last Updated on Jul 27 2021, 1:53 am EDT
Humidity: 84%
Wind Speed: N 0.0 mph
Barometer 30.05 in
Dewpoint: 66.9 F
Visibility: 10.00 mi
Precip: --
Heat Index: NA
Wind Chill: NA
Current conditions at:

Indianapolis, Eagle Creek Airpark, IN (KEYE)

Lat: 39.825 Lon: 86.29583

Local Radar Image active severe weather and emergency alerts image image weather storm and storm spotter reports image weather observation monitoring service image
Local
Radar
Active
Alerts
Storm Reports Obs
Monitoring

Sign-up For Email & Text Message Weather Alert Notification Services


Advertise Here

Observation History for Indianapolis, Eagle Creek Airpark, IN


Time Wind
(mph)
Vis
(mi)
Weather Precip (in) Temperature (F) Relative
Humidity
Wind
Chill
(F)
Heat
Index
(F)
Pressure
Air Dwpt altimeter
(in)
sea level
(mb)
Rmks
1:53 am EDT N 0.0 10.00 Fair -- 72.0 66.9 84% NA NA 30.05 1016.5
12:53 am EDT N 0.0 10.00 Fair -- 73.0 68.0 84% NA NA 30.05 1016.6
11:53 pm EDT N 4.6 10.00 Fair -- 75.0 68.0 79% NA NA 30.04 1016.4
10:53 pm EDT N 4.6 8.00 Fair -- 77.0 66.9 71% NA NA 30.05 1016.6
9:53 pm EDT N 3.5 10.00 Fair -- 80.0 63.0 56% NA 81 30.03 1016.1
8:53 pm EDT NE 3.5 10.00 Fair -- 81.0 64.0 57% NA 83 30.00 1015.2
7:53 pm EDT N 8.1 10.00 Fair -- 85.0 63.0 48% NA 86 30.00 1015.0
6:53 pm EDT N 9.2 10.00 Fair -- 87.0 63.0 45% NA 88 30.00 1015.1
5:53 pm EDT NW 10.4 10.00 Fair -- 88.0 62.1 42% NA 88 30.00 1015.0
4:53 pm EDT N 8.1 10.00 Fair -- 89.0 59.0 36% NA 88 30.00 1015.0
3:53 pm EDT NW 6.9 10.00 Fair -- 89.0 61.0 39% NA 89 30.02 1015.6
2:53 pm EDT NW 6.9 10.00 Fair -- 90.0 59.0 35% NA 89 30.02 1015.8
1:53 pm EDT NW 9.2 10.00 Fair -- 89.0 61.0 39% NA 89 30.03 1015.9
12:53 pm EDT N 8.1 10.00 Fair -- 88.0 59.0 38% NA 87 30.03 1016.0
11:53 am EDT NW 8.1 10.00 Fair -- 85.0 62.1 46% NA 86 30.03 1016.0
10:53 am EDT N 4.6 10.00 Fair -- 84.0 63.0 49% NA 85 30.03 1015.9
9:53 am EDT 3.5 10.00 Fair -- 80.0 66.9 64% NA 82 30.03 1016.0
8:53 am EDT N 0.0 10.00 Fair -- 77.0 66.0 69% NA NA 30.02 1015.8
7:53 am EDT N 0.0 10.00 Fair -- 74.0 68.0 82% NA NA 30.01 1015.4
6:53 am EDT N 0.0 10.00 Fair -- 72.0 66.9 84% NA NA 30.00 1015.0
5:53 am EDT N 3.5 10.00 Fair -- 73.0 68.0 84% NA NA 29.99 1014.6
4:53 am EDT NW 3.5 10.00 Fair -- 75.0 69.1 82% NA NA 29.97 1013.9
3:53 am EDT NW 3.5 10.00 A Few Clouds -- 75.0 70.0 84% NA NA 29.96 1013.8
2:53 am EDT N 0.0 10.00 Fair -- 75.0 69.1 82% NA NA 29.97 1013.9

Regional Weather Observation


Crawfordsville Municipal Airport, IN (KCFJ)

Fair
62.0 F

Frankfort Municipal Airport, IN (KFKR)

Overcast
63.0 F

Indianapolis, Eagle Creek Airpark, IN (KEYE)

Fair
72.0 F

Indianapolis International Airport, IN (KIND)

Fair
74.0 F

Putnam County Regional Airport, IN (KGPC)

Fair
66.0 F

Lafayette, Purdue University Airport, IN (KLAF)

Fair
66.0 F
Advertise Here

Advertise Here